Current weather by "City, St" or "zip code"  
 

Current Conditions: Natchitoches, Natchitoches Regional Airport, LA

Fair


74.0 F

Last Updated on Sep 18 2020, 12:55 am CDT
Humidity: 86%
Wind Speed: N 4.6 mph
Barometer 29.98 in
Dewpoint: 69.3 F
Visibility: 10.00 mi
Precip: --
Heat Index: NA
Wind Chill: NA
Current conditions at:

Natchitoches, Natchitoches Regional Airport, LA (KIER)

Lat: 31.73583 Lon: 93.09917

Local Radar Image active severe weather and emergency alerts image image weather storm and storm spotter reports image weather observation monitoring service image
Local
Radar
Active
Alerts
Storm Reports Obs
Monitoring

Sign-up For Email & Text Message Weather Alert Notification Services



Advertise Here

Observation History for Natchitoches, Natchitoches Regional Airport, LA


Time Wind
(mph)
Vis
(mi)
Weather Precip (in) Temperature (F) Relative
Humidity
Wind
Chill
(F)
Heat
Index
(F)
Pressure
Air Dwpt altimeter
(in)
sea level
(mb)
Rmks
12:55 am CDT N 4.6 10.00 Fair -- 74.0 69.3 86% NA NA 29.98 M
11:55 pm CDT N 4.6 10.00 Fair -- 76.0 69.8 82% NA NA 29.99 M
10:55 pm CDT N 6.9 10.00 Fair -- 77.0 70.9 81% NA NA 29.97 M
9:55 pm CDT N 8.1 10.00 Partly Cloudy -- 77.0 71.6 83% NA NA 29.96 M
8:55 pm CDT N 0.0 10.00 Fair -- 75.0 72.3 91% NA NA 29.94 M
7:55 pm CDT N 4.6 10.00 Fair -- 79.0 70.9 76% NA NA 29.91 M
6:55 pm CDT N 5.8 10.00 Fair -- 82.0 70.9 70% NA 86 29.92 M
5:55 pm CDT N 5.8 10.00 Partly Cloudy -- 84.0 71.6 67% NA 89 29.92 M
4:55 pm CDT NE 6.9 10.00 Partly Cloudy -- 85.0 70.0 60% NA 89 29.91 M
3:55 pm CDT NE 6.9 10.00 Fair -- 85.0 70.0 60% NA 89 29.91 M
2:55 pm CDT N 8.1 10.00 Partly Cloudy -- 86.0 70.9 60% NA 91 29.93 M
1:55 pm CDT NE 3.5 10.00 Fair -- 85.0 71.2 64% NA 91 29.95 M
12:55 pm CDT N 6.9 10.00 Fair -- 83.0 70.5 65% NA 87 29.96 M
11:55 am CDT NE 9.2 10.00 Fair -- 80.0 70.2 71% NA 83 29.98 M
10:55 am CDT E 5.8 10.00 Fair -- 79.0 70.2 74% NA NA 29.99 M
9:55 am CDT NE 5.8 10.00 Fair -- 77.0 70.7 82% NA NA 29.97 M
8:55 am CDT N 5.8 10.00 Partly Cloudy -- 75.0 71.2 89% NA NA 29.95 M
7:55 am CDT N 5.8 10.00 Fair -- 73.0 71.1 95% NA NA 29.94 M
6:55 am CDT N 3.5 10.00 Mostly Cloudy -- 73.0 70.9 95% NA NA 29.93 M
5:55 am CDT NE 4.6 10.00 Partly Cloudy -- 73.0 71.1 94% NA NA 29.91 M
4:55 am CDT N 5.8 10.00 Fair -- 73.0 71.6 94% NA NA 29.91 M
3:55 am CDT N 6.9 10.00 Fair -- 74.0 72.0 94% NA NA 29.91 M
2:55 am CDT N 4.6 10.00 Fair -- 75.0 72.0 91% NA NA 29.91 M
1:55 am CDT N 3.5 10.00 Fair -- 75.0 72.5 93% NA NA 29.92 M

Regional Weather Observation


Ft. Polk - Peason Ridge, LA (KAQV)

A Few Clouds
82.0 F

Barksdale Air Force Base, LA (KBAD)

Fog/Mist
71.0 F

Shreveport, Shreveport Regional Airport, LA (KSHV)

A Few Clouds
74.0 F

Minden Airport, LA (KMNE)

Fog
69.0 F

Ft. Polk/Self Strip, LA (KDNK)

Light Rain
66.0 F

Fort Polk, Polk AAF Ft Polk, LA (KPOE)

Fair
75.0 F